Hourly Data Report for May 25, 1972

All times are specified in Local Standard Time (LST). Add 1 hour to adjust for Daylight Saving Time where and when it is observed.

TORONTO LESTER B. PEARSON INT'L A
ONTARIO

43°40'38.000" N
79°37'50.000" W
173.40 m
6158733
71624
YYZ

Download Data

Hourly Data (May 1972)
Hourly Data Report for May 25, 1972
Temp Definition
°C
Dew Point Temp Definition
°C
Rel Hum Definition
%
Wind Dir Definition
10's deg

Wind Spd Definition
km/h
Visibility Definition
km
Stn Press Definition
kPa
Hmdx Definition


Wind Chill Definition


Weather Definition


TIME
00:00 15.0 11.1 77 3 6 19.3 99.44     Clear
01:00 13.3 10.6 82 2 5 19.3 99.45     Clear
02:00 12.8 10.0 84 2 8 19.3 99.48     Clear
03:00 13.3 9.4 78 3 5 19.3 99.52     Clear
04:00 12.2 8.9 80 2 6 24.1 99.59     Mainly Clear
05:00 12.2 7.2 71 7 10 24.1 99.70     Mainly Clear
06:00 14.4 1.1 41 9 16 40.2 99.77     Mainly Clear
07:00 16.1 1.1 36 10 14 40.2 99.86     Mainly Clear
08:00 17.8 -1.1 28 10 24 40.2 99.96     Mainly Clear
09:00 18.3 -1.7 27 10 29 32.2 100.00     Mainly Clear
10:00 18.9 -1.1 26 10 26 32.2 100.03     Clear
11:00 20.0 -2.2 22 9 27 32.2 100.08     Clear
12:00 20.6 -4.4 18 10 26 40.2 100.09     Clear
13:00 21.1 -2.2 21 9 24 40.2 100.08     Clear
14:00 20.0 1.1 29 13 27 40.2 100.11     Clear
15:00 18.9 2.2 33 12 26 32.2 100.09     Clear
16:00 19.4 0.0 27 11 21 32.2 100.09     Clear
17:00 19.4 0.0 28 10 21 32.2 100.08     Clear
18:00 18.9 -0.6 28 10 21 32.2 100.07     Clear
19:00 17.8 -0.6 30 10 19 32.2 100.12     Clear
20:00 16.1 1.1 36 10 18 32.2 100.14     Clear
21:00 15.0 1.1 39 11 11 25.0 100.22     Clear
22:00 13.9 1.7 44 10 13 25.0 100.28     Clear
23:00 13.9 1.7 44 11 8 24.1 100.31     Clear

Notes on Data Quality.

Legend

  • E = Estimated
  • M = Missing
  • NA = Not Available
  • ‡ = Partner data that is not subject to review by the National Climate Archives
Date modified: